Time,TemperatureF,DewpointF,PressureIn,WindDirection,WindDirectionDegrees,WindSpeedMPH,WindSpeedGustMPH,Humidity,HourlyPrecipIn,Conditions,Clouds,dailyrainin,SolarRadiationWatts/m^2,SoftwareType,DateUTC
2013-08-19 00:00:00,50.0,50.0,-100.00,SW,220,9.0,12.0,100,0.00,,,0.05,0.000000,,2013-08-19 07:00:00,
2013-08-19 00:42:00,50.0,50.0,-100.00,SW,220,9.0,12.0,100,0.00,,,0.05,0.000000,,2013-08-19 07:42:00,
2013-08-19 00:52:00,50.0,50.0,-100.00,SW,220,9.0,12.0,100,0.00,,,0.05,0.000000,,2013-08-19 07:52:00,
2013-08-19 01:00:00,52.0,52.0,-100.00,SW,220,7.0,13.0,100,0.00,,,0.05,0.000000,,2013-08-19 08:00:00,
2013-08-19 01:42:00,52.0,52.0,-100.00,SW,220,7.0,13.0,100,0.00,,,0.05,0.000000,,2013-08-19 08:42:00,
2013-08-19 01:52:00,52.0,52.0,-100.00,SW,220,7.0,13.0,100,0.00,,,0.05,0.000000,,2013-08-19 08:52:00,
2013-08-19 02:00:00,51.0,51.0,-100.00,SW,225,8.0,12.0,100,0.00,,,0.05,0.000000,,2013-08-19 09:00:00,
2013-08-19 02:43:00,51.0,51.0,-100.00,SW,225,8.0,12.0,100,0.00,,,0.05,0.000000,,2013-08-19 09:43:00,
2013-08-19 02:53:00,51.0,51.0,-100.00,SW,225,8.0,12.0,100,0.00,,,0.05,0.000000,,2013-08-19 09:53:00,
2013-08-19 03:00:00,51.0,51.0,-100.00,SW,218,9.0,14.0,100,0.00,,,0.05,0.000000,,2013-08-19 10:00:00,
2013-08-19 03:43:00,51.0,51.0,-100.00,SW,218,9.0,14.0,100,0.00,,,0.05,0.000000,,2013-08-19 10:43:00,
2013-08-19 03:52:00,51.0,51.0,-100.00,SW,218,9.0,14.0,100,0.00,,,0.05,0.000000,,2013-08-19 10:52:00,
2013-08-19 04:00:00,51.0,51.0,-100.00,SW,218,11.0,15.0,100,0.00,,,0.05,0.000000,,2013-08-19 11:00:00,
2013-08-19 04:45:00,51.0,51.0,-100.00,SW,218,11.0,15.0,100,0.00,,,0.05,0.000000,,2013-08-19 11:45:00,
2013-08-19 04:52:00,51.0,51.0,-100.00,SW,218,11.0,15.0,100,0.00,,,0.05,0.000000,,2013-08-19 11:52:00,
2013-08-19 05:00:00,49.0,49.0,-100.00,SSW,212,11.0,16.0,100,0.00,,,0.05,0.000000,,2013-08-19 12:00:00,
2013-08-19 05:42:00,49.0,49.0,-100.00,SSW,212,11.0,16.0,100,0.00,,,0.05,0.000000,,2013-08-19 12:42:00,
2013-08-19 05:52:00,49.0,49.0,-100.00,SSW,212,11.0,16.0,100,0.00,,,0.05,0.000000,,2013-08-19 12:52:00,
2013-08-19 06:00:00,49.0,49.0,-100.00,SSW,211,11.0,18.0,100,0.00,,,0.05,0.000000,,2013-08-19 13:00:00,
2013-08-19 06:42:00,49.0,49.0,-100.00,SSW,211,11.0,18.0,100,0.00,,,0.05,0.000000,,2013-08-19 13:42:00,
2013-08-19 06:52:00,49.0,49.0,-100.00,SSW,211,11.0,18.0,100,0.00,,,0.05,0.000000,,2013-08-19 13:52:00,
2013-08-19 07:00:00,51.0,51.0,-100.00,SSW,210,10.0,17.0,100,0.00,,,0.05,12.000000,,2013-08-19 14:00:00,
2013-08-19 07:42:00,51.0,51.0,-100.00,SSW,210,10.0,17.0,100,0.00,,,0.05,12.000000,,2013-08-19 14:42:00,
2013-08-19 07:52:00,51.0,51.0,-100.00,SSW,210,10.0,17.0,100,0.00,,,0.05,12.000000,,2013-08-19 14:52:00,
2013-08-19 08:00:00,56.0,55.0,-100.00,SSW,209,11.0,17.0,98,0.00,,,0.05,189.000000,,2013-08-19 15:00:00,
2013-08-19 08:44:00,56.0,55.0,-100.00,SSW,209,11.0,17.0,98,0.00,,,0.05,189.000000,,2013-08-19 15:44:00,
2013-08-19 08:54:00,56.0,55.0,-100.00,SSW,209,11.0,17.0,98,0.00,,,0.05,189.000000,,2013-08-19 15:54:00,
2013-08-19 09:00:00,56.0,54.0,-100.00,SSW,208,10.0,16.0,93,0.00,,,0.04,276.000000,,2013-08-19 16:00:00,
2013-08-19 09:23:00,56.0,54.0,-100.00,SSW,208,10.0,16.0,93,0.00,,,0.04,276.000000,,2013-08-19 16:23:00,
2013-08-19 09:34:00,56.0,54.0,-100.00,SSW,208,10.0,16.0,93,0.00,,,0.04,276.000000,,2013-08-19 16:34:00,
2013-08-19 09:47:00,56.0,54.0,-100.00,SSW,208,10.0,16.0,93,0.00,,,0.04,276.000000,,2013-08-19 16:47:00,
2013-08-19 10:00:00,57.0,55.0,-100.00,SSW,210,10.0,20.0,93,0.00,,,0.01,280.000000,,2013-08-19 17:00:00,
2013-08-19 10:49:00,57.0,55.0,-100.00,SSW,210,10.0,20.0,93,0.00,,,0.01,280.000000,,2013-08-19 17:49:00,
2013-08-19 10:57:00,57.0,55.0,-100.00,SSW,210,10.0,20.0,93,0.00,,,0.01,280.000000,,2013-08-19 17:57:00,
2013-08-19 11:00:00,-999.0,-99.9,-100.00,SSW,213,9.0,15.0,100,0.00,,,-99.99,267.000000,,2013-08-19 18:00:00,
2013-08-19 11:50:00,-999.0,-99.9,-100.00,SSW,213,9.0,15.0,100,0.00,,,-99.99,267.000000,,2013-08-19 18:50:00,
2013-08-19 12:00:00,56.0,56.0,-100.00,SW,216,8.0,15.0,100,0.01,,,-99.99,176.000000,,2013-08-19 19:00:00,
2013-08-19 12:30:00,-999.0,-99.9,-100.00,SW,216,8.0,15.0,100,0.01,,,-99.99,176.000000,,2013-08-19 19:30:00,
2013-08-19 12:50:00,56.0,56.0,-100.00,SW,216,8.0,15.0,100,0.01,,,-99.99,176.000000,,2013-08-19 19:50:00,
2013-08-19 12:59:00,56.0,56.0,-100.00,SW,216,8.0,15.0,100,0.01,,,-99.99,176.000000,,2013-08-19 19:59:00,
2013-08-19 13:00:00,-999.0,-99.9,-100.00,SW,218,11.0,19.0,-999,-99.99,,,-99.99,252.000000,,2013-08-19 20:00:00,
2013-08-19 13:30:00,56.0,-99.9,-100.00,SW,218,11.0,19.0,100,0.00,,,0.01,252.000000,,2013-08-19 20:30:00,
2013-08-19 13:40:00,56.0,56.0,-100.00,SW,218,11.0,19.0,100,0.00,,,0.01,252.000000,,2013-08-19 20:40:00,
2013-08-19 13:50:00,56.0,56.0,-100.00,SW,218,11.0,19.0,100,0.00,,,0.01,252.000000,,2013-08-19 20:50:00,
2013-08-19 14:00:00,64.0,61.0,-100.00,SW,220,4.0,17.0,90,0.00,,,0.01,785.000000,,2013-08-19 21:00:00,
2013-08-19 14:46:00,64.0,61.0,-100.00,SW,220,4.0,17.0,90,0.00,,,0.01,785.000000,,2013-08-19 21:46:00,
2013-08-19 14:54:00,64.0,61.0,-100.00,SW,220,4.0,17.0,90,0.00,,,0.01,785.000000,,2013-08-19 21:54:00,
2013-08-19 15:00:00,63.0,56.0,-100.00,SSW,209,5.0,17.0,77,0.00,,,0.01,982.000000,,2013-08-19 22:00:00,
2013-08-19 15:44:00,63.0,56.0,-100.00,SSW,209,5.0,17.0,77,0.00,,,0.01,982.000000,,2013-08-19 22:44:00,
2013-08-19 15:54:00,63.0,56.0,-100.00,SSW,209,5.0,17.0,77,0.00,,,0.01,982.000000,,2013-08-19 22:54:00,
2013-08-19 16:00:00,63.0,51.0,-100.00,SSW,198,5.0,13.0,66,0.00,,,0.01,881.000000,,2013-08-19 23:00:00,
2013-08-19 16:48:00,63.0,51.0,-100.00,SSW,198,5.0,13.0,66,0.00,,,0.01,881.000000,,2013-08-19 23:48:00,
2013-08-19 16:55:00,63.0,51.0,-100.00,SSW,198,5.0,13.0,66,0.00,,,0.01,881.000000,,2013-08-19 23:55:00,
2013-08-19 17:00:00,64.0,51.0,-100.00,SSW,205,4.0,14.0,62,0.00,,,0.01,731.000000,,2013-08-20 00:00:00,
2013-08-19 17:24:00,64.0,51.0,-100.00,SSW,205,4.0,14.0,62,0.00,,,0.01,731.000000,,2013-08-20 00:24:00,
2013-08-19 17:32:00,64.0,51.0,-100.00,SSW,205,4.0,14.0,62,0.00,,,0.01,731.000000,,2013-08-20 00:32:00,
2013-08-19 17:42:00,64.0,51.0,-100.00,SSW,205,4.0,14.0,62,0.00,,,0.01,731.000000,,2013-08-20 00:42:00,
2013-08-19 17:52:00,64.0,51.0,-100.00,SSW,205,4.0,14.0,62,0.00,,,0.01,731.000000,,2013-08-20 00:52:00,
2013-08-19 18:00:00,57.0,48.0,-100.00,SW,215,7.0,14.0,71,0.00,,,0.01,547.000000,,2013-08-20 01:00:00,
2013-08-19 18:42:00,57.0,48.0,-100.00,SW,215,7.0,14.0,71,0.00,,,0.01,547.000000,,2013-08-20 01:42:00,
2013-08-19 18:52:00,57.0,48.0,-100.00,SW,215,7.0,14.0,71,0.00,,,0.01,547.000000,,2013-08-20 01:52:00,
2013-08-19 19:00:00,54.0,49.0,-100.00,SW,219,8.0,18.0,84,0.00,,,-99.99,335.000000,,2013-08-20 02:00:00,
2013-08-19 19:42:00,54.0,49.0,-100.00,SW,219,8.0,18.0,84,0.00,,,-99.99,335.000000,,2013-08-20 02:42:00,
2013-08-19 19:52:00,54.0,49.0,-100.00,SW,219,8.0,18.0,84,0.00,,,-99.99,335.000000,,2013-08-20 02:52:00,
2013-08-19 20:00:00,50.0,50.0,-100.00,SW,226,8.0,17.0,100,0.00,,,0.01,35.000000,,2013-08-20 03:00:00,
2013-08-19 20:43:00,50.0,50.0,-100.00,SW,226,8.0,17.0,100,0.00,,,0.01,35.000000,,2013-08-20 03:43:00,
2013-08-19 20:54:00,50.0,50.0,-100.00,SW,226,8.0,17.0,100,0.00,,,0.01,35.000000,,2013-08-20 03:54:00,
2013-08-19 21:00:00,51.0,51.0,-100.00,SW,221,8.0,20.0,100,0.00,,,0.01,3.000000,,2013-08-20 04:00:00,
2013-08-19 21:43:00,51.0,51.0,-100.00,SW,221,8.0,20.0,100,0.00,,,0.01,3.000000,,2013-08-20 04:43:00,
2013-08-19 21:53:00,51.0,51.0,-100.00,SW,221,8.0,20.0,100,0.00,,,0.01,3.000000,,2013-08-20 04:53:00,
2013-08-19 22:00:00,51.0,51.0,-100.00,SW,220,7.0,19.0,100,0.00,,,0.01,0.000000,,2013-08-20 05:00:00,
2013-08-19 22:43:00,51.0,51.0,-100.00,SW,220,7.0,19.0,100,0.00,,,0.01,0.000000,,2013-08-20 05:43:00,
2013-08-19 22:52:00,51.0,51.0,-100.00,SW,220,7.0,19.0,100,0.00,,,0.01,0.000000,,2013-08-20 05:52:00,
2013-08-19 23:00:00,49.0,49.0,-100.00,SW,223,5.0,13.0,100,0.00,,,0.01,0.000000,,2013-08-20 06:00:00,
2013-08-19 23:42:00,49.0,49.0,-100.00,SW,223,5.0,13.0,100,0.00,,,0.01,0.000000,,2013-08-20 06:42:00,
2013-08-19 23:52:00,49.0,49.0,-100.00,SW,223,5.0,13.0,100,0.00,,,0.01,0.000000,,2013-08-20 06:52:00,